Regional Weather Roundup
Issued by NWS

Home | Current Version | Previous Version | Text Only | Print | Product List | Glossary On
Versions: 1 2 3 4 5 6 7 8 9 10 11 12 13 14 15 16 17 18 19 20 21 22 23 24 25 26 27 28 29 30 31 32 33 34 35 36 37 38 39 40 41 42 43 44 45 46 47 48 49 50
000
ASUS44 KLUB 241010
RWRTX
WEST TEXAS WEATHER ROUNDUP
NATIONAL WEATHER SERVICE LUBBOCK TX
500 AM CDT MON APR 24 2017

NOTE: "FAIR" INDICATES FEW OR NO CLOUDS BELOW 12,000 FEET WITH NO
SIGNIFICANT WEATHER AND/OR OBSTRUCTIONS TO VISIBILITY.

TXZ004-006>008-010-012-014-016-OKZ002-241100-
TEXAS PANHANDLE/OKLAHOMA PANHANDLE

CITY           SKY/WX    TMP DP  RH WIND       PRES   REMARKS
AMARILLO       CLEAR     50  32  50 S20G29    29.84F
BORGER         CLEAR     54  33  45 S13G18    29.81F
CANADIAN       CLEAR     53  36  52 S13       29.82F
DALHART        CLEAR     53  35  50 S14       29.79F
DUMAS          CLOUDY    52  33  48 SW20      29.79F
GUYMON         CLOUDY    53  37  54 S18G26    29.71F
HEREFORD       CLEAR     51  36  56 SW8       29.87S
PAMPA          CLEAR     52  32  46 S17       29.83S
PERRYTON       CLOUDY    51  37  59 S15       29.77F
$$

TXZ026-029-035-045-048-241100-
SOUTHERN PANHANDLE/SOUTH PLAINS/ROLLING PLAINS

CITY           SKY/WX    TMP DP  RH WIND       PRES   REMARKS
CHILDRESS      CLEAR     49  36  61 S13       29.87F
SEMINOLE       CLOUDY    46  35  65 CALM      29.89F
LUBBOCK        CLOUDY    53  31  42 S14       29.87F
PLAINVIEW      CLOUDY    49  32  51 S8        29.86F
SNYDER         CLEAR    N/A N/A N/A S8        29.89F
$$

TXZ052-054-060>062-072-078-127-140-154-169-241100-
PERMIAN BASIN/CONCHO VALLEY/BIG COUNTRY/EDWARDS PLATEAU

CITY           SKY/WX    TMP DP  RH WIND       PRES   REMARKS
ABILENE        CLEAR     53  39  59 S10       29.92F
BIG SPRING     PTCLDY    54  36  49 S12       29.90F
BROWNWOOD      PTCLDY    41  39  93 CALM      29.96S
JUNCTION       CLEAR     43  37  79 NW6       29.96F
MIDLAND        CLOUDY    56  35  45 S12       29.87F
ODESSA         PTCLDY    57  33  40 S14       29.88F
SAN ANGELO     CLOUDY    51  37  58 S7        29.92F
SONORA         CLEAR     52  39  62 CALM      29.98F
SWEETWATER     CLEAR     54  36  50 S16       29.91F
WINK           CLOUDY    56  34  43 SE13      29.84F
$$

TXZ055-058-074-075-080-082-241100-
FAR WEST/SOUTHWEST MOUNTAINS/TRANS PECOS

CITY           SKY/WX    TMP DP  RH WIND       PRES   REMARKS
ALPINE         PTCLDY    65  39  38 S7        30.00S
DRYDEN           N/A     56  40  55 N7        29.90F
EL PASO        MOCLDY    68  37  32 S12       29.85S
FORT STOCKTON  CLOUDY    59  40  49 SE16      29.85F
GUADALUPE PASS CLOUDY    60  36  40 W15         N/A
MARFA          CLOUDY    52  34  50 N6        30.01S
PECOS          CLOUDY    55  36  49 NE6       29.83F
$$

TXZ014-016-019-021>030-083-241100
TEXAS TECH WEST TEXAS MESONET/TEXAS PANHANDLE/NORTHERN SOUTH PLAINS

CITY           SKY/WX    TMP DP  RH WIND       PRES   REMARKS
ABERNATHY 5ENE   N/A     52  32  47 S15       29.88F
AMARILLO 9NNE    N/A     55  32  41 S30       29.79F
AMARILLO 7SSE    N/A     49  32  52 S12       29.86F
AMHERST 1NE      N/A     48  33  56 S10       29.87F
BOOTLEG 11WNW    N/A     49  31  50 SW18      29.88S
CANADIAN 6E      N/A     50  36  57 S10       29.81F
CAPROCK CYN SP   N/A     50  34  53 S14       29.85F
CHILDRESS 2NNE   N/A     47  37  70 S8        29.87S
CLARENDON 2WSW   N/A     51  32  49 S14       29.85S
CLAUDE 12SW      N/A     53  30  41 S12       29.87R
DIMMITT 2NE      N/A     48  33  57 S14       29.87S
FLOYDADA 2NNE    N/A     51  31  46 S15       29.88S
FRIONA 2NE       N/A     48  33  55 S14       29.87F
GOODLETT 3W      N/A     49  37  64 S7        29.87F
HART 3N          N/A     47  33  56 S12       29.87F
HEREFORD 2NW     N/A     49  32  52 S7        29.86S
MCLEAN 1E        N/A     49  32  51 S16       29.83S
MULESHOE 2SSW    N/A     49  33  54 SW7       29.88S
OLTON 6S         N/A     49  32  52 S13       29.87F
PALO DURO SP     N/A     51  32  48 S7        29.87S
PAMPA 2E         N/A     51  32  48 S15       29.83S
PLAINVIEW 1S     N/A     50  33  52 S12       29.87S
SILVERTON 7ESE   N/A     53  31  43 S15       29.86F
TULIA 2ENE       N/A     51  33  50 S16       29.86S
TURKEY 2WSW      N/A     47  36  65 SE9       29.85F
UMBARGER 3NNE    N/A     51  32  48 S18       29.85F
$$

TXZ033>036-039>041-045>048-241100
TEXAS TECH WEST TEXAS MESONET/SOUTH PLAINS

CITY           SKY/WX    TMP DP  RH WIND       PRES   REMARKS
AIKEN 3WSW       N/A     49  33  54 S12       29.89S
ANDREWS 2NE      N/A     50  35  58 S7        29.88F
ANTON 6SSW       N/A     47  33  58 S6        29.88F
BROWNFIELD 2S    N/A     47  33  57 E3        29.88F
DENVR CTY 7WNW   N/A     46  33  62 S6        29.87F
GAIL 2ESE        N/A     48  34  57 SE6       29.88F
LAMESA 2SE       N/A     48  34  58 S7        29.89S
LEVELLAND 4S     N/A     49  31  51 S8        29.88F
LUBBOCK 3WNW     N/A     52  30  42 S7        29.89F
MORTON 1ENE      N/A     49  32  52 S5        29.87F
ODONNELL 1N      N/A     48  31  52 S6        29.88S
PLAINS 3N        N/A     47  33  58 S7        29.88S
RALLS 1SE        N/A     49  32  52 S9        29.90S
REESE CENTER     N/A     48  32  53 S8        29.88F
SEAGRAVES 1SW    N/A     46  35  64 S7        29.88S
SEMINOLE 2NNE    N/A     46  35  65 SE3       29.88S
SLATON 2NE       N/A     48  32  53 S1        29.90R
SNYDER 3E        N/A     51  36  56 S13       29.88F
TAHOKA 3NNE      N/A     50  32  51 S9        29.88S
WOLFFORTH 6SSW   N/A     51  30  46 S8        29.89S
$$

TXZ031-032-036>038-042>044-241100-
TEXAS TECH WEST TEXAS MESONET/ROLLING PLAINS

CITY           SKY/WX    TMP DP  RH WIND       PRES   REMARKS
ASPERMONT 3NE    N/A     51  36  57 S6        29.89R
FLUVANNA 3WNW    N/A     49  33  54 S13       29.88F
GRAHAM 5SSW      N/A     53  32  45 SE10      29.88S
GUTHRIE 10WSW    N/A     53  36  53 S12       29.87F
HASKELL 1NW      N/A     51  36  57 SE7       29.90S
JAYTON 1SSE      N/A     49  37  61 S6        29.88F
KNOX CITY 3NW    N/A     51  37  58 S6        29.89F
LK A HENRY 1NW   N/A     56  33  43 S9        29.87F
NORTHFIELD 1S    N/A     47  36  66 SE8       29.87S
ODELL 4ENE       N/A     51  41  68 SE12      29.90S
PADUCAH 10SW     N/A     44  37  78 S10       29.87F
POST 1NE         N/A     53  32  46 S7        29.88S
RRING SPRGS 3N   N/A     52  36  53 S17       29.86S
SEYMOUR 3NW      N/A     55  38  54 S9        29.90S
SPUR 1W          N/A     47  34  60 SW5       29.88F
WEINERT 2NNE     N/A     47  35  63 S6        29.90F
WHITE RVR 6NE    N/A     49  32  51 S5        29.89S
$$

TXZ052-054-060>062-072-078-127-140-154-169-241100-
TEXAS TECH WEST TEXAS MESONET/PERMIAN BASIN/
CONCHO VALLEY/BIG COUNTRY/EDWARDS PLATEAU

CITY           SKY/WX    TMP DP  RH WIND       PRES   REMARKS
COYANOSA 2N      N/A     61  37  41 SE14      29.83F
JUNCTION 1SSW    N/A     39  36  88 CALM      29.97F
MERTZON 3NNE     N/A     47  37  68 S5        29.92F
SAN ANGELO 7NW   N/A     48  36  62 E3        29.92F
STRLNG CT 4WSW   N/A     51  36  55 SE6       29.91F
ST LAWRNCE 5SW   N/A     52  35  53 S13       29.89F
SWEETWATR 11SW   N/A     55  37  51 S15       29.90F
WALL 1E          N/A     51  36  56 S7        29.94F
$$

TXZ055-058-074-075-080-082-241100-
TEXAS TECH WEST TEXAS MESONET/FAR WEST/SOUTHWEST MOUNTAINS/TRANS PECOS

CITY           SKY/WX    TMP DP  RH WIND       PRES   REMARKS
PRSMN GAP BBNP   N/A     63  37  38 NE7       29.92F
GUADLPE MTN NP   N/A     61  35  36 SW9       29.96S
$$



USA.gov is the U.S. government's official web portal to all federal, state and local government web resources and services.